Location: Newark
(40.3500°N, 15.2333°E)
Time: 22:32:30
(UTC+00:00)

Vanguard 1 - Pass Details

Date: 25 January 2020
Orbit: 650 x 3833 km, 34.2° (Epoch: 19 February)

Event Time Altitude Azimuth Distance (km) Brightness Sun altitude
Rises 22:12:39 0° 261° (W) 3,982 - -65.1°
Reaches altitude 10° 22:16:28 10° 239° (WSW) 3,467 - -65.5°
Maximum altitude 22:21:19 16° 206° (SSW) 3,610 - -66.0°
Drops below altitude 10° 22:27:42 10° 175° (S) 4,782 - -66.6°
Sets 22:34:55 0° 157° (SSE) 6,533 - -67.2°
